When you browse on this site, cookies collect data to enhance your experience and personalize the content and advertising you see.
Visit our Privacy Policy to learn more. By continuing to use the site, you agree to this use of cookies and data.
  • En España
  • Lista de países
  • Para 7 días
  • Temperatura del agua
  • El tiempo en el mapa
  • Informadores
  • user-avatar
    Iniciar sesión

    Tiempo cada hora Taraz

    Hoy, 29 Mayo, Viernes

    Tiempo Temperatura Precipitaciones Viento Presión Humedad
    00:00 +19°C° 0 mm 2 mps 703 mmHg 42%
    01:00 +18°C° 0 mm 2 mps 702 mmHg 43%
    02:00 +17°C° 0 mm 2 mps 702 mmHg 44%
    03:00 +16°C° 0 mm 1 mps 702 mmHg 45%
    04:00 +16°C° 0 mm 1 mps 702 mmHg 47%
    05:00 +15°C° 0 mm 1 mps 702 mmHg 48%
    06:00 +18°C° 0 mm 1 mps 702 mmHg 45%
    07:00 +20°C° 0 mm 1 mps 702 mmHg 41%
    08:00 +22°C° 0 mm 1 mps 703 mmHg 38%
    09:00 +24°C° 0 mm 2 mps 703 mmHg 35%
    10:00 +25°C° 0 mm 2 mps 703 mmHg 33%
    11:00 +27°C° 0 mm 3 mps 703 mmHg 31%
    12:00 +28°C° 0 mm 3 mps 703 mmHg 29%
    13:00 +30°C° 0 mm 3 mps 703 mmHg 27%
    14:00 +31°C° 0 mm 3 mps 703 mmHg 25%
    15:00 +31°C° 0 mm 3 mps 703 mmHg 24%
    16:00 +31°C° 0 mm 3 mps 703 mmHg 24%
    17:00 +31°C° 0 mm 3 mps 703 mmHg 24%
    18:00 +28°C° 0 mm 3 mps 703 mmHg 27%
    19:00 +26°C° 0 mm 3 mps 703 mmHg 30%
    20:00 +22°C° 0 mm 3 mps 703 mmHg 34%
    21:00 +21°C° 0 mm 2 mps 703 mmHg 35%
    22:00 +20°C° 0 mm 2 mps 703 mmHg 37%
    23:00 +19°C° 0 mm 2 mps 703 mmHg 39%

    Mañana, 30 Mayo, Sábado

    Tiempo Temperatura Precipitaciones Viento Presión Humedad
    00:00 +19°C° 0 mm 1 mps 703 mmHg 41%
    01:00 +19°C° 0 mm 1 mps 702 mmHg 42%
    02:00 +18°C° 0 mm 1 mps 702 mmHg 44%
    03:00 +16°C° 0 mm 1 mps 702 mmHg 45%
    04:00 +16°C° 0 mm 1 mps 702 mmHg 47%
    05:00 +15°C° 0 mm 1 mps 702 mmHg 48%
    06:00 +19°C° 0 mm 1 mps 703 mmHg 44%
    07:00 +21°C° 0 mm 1 mps 703 mmHg 39%
    08:00 +23°C° 0 mm 1 mps 704 mmHg 35%
    09:00 +25°C° 0 mm 2 mps 704 mmHg 33%
    10:00 +27°C° 0 mm 2 mps 704 mmHg 30%
    11:00 +29°C° 0 mm 3 mps 705 mmHg 27%
    12:00 +30°C° 0 mm 3 mps 705 mmHg 25%
    13:00 +31°C° 0 mm 3 mps 705 mmHg 23%
    14:00 +33°C° 0 mm 4 mps 705 mmHg 20%
    15:00 +33°C° 0 mm 4 mps 705 mmHg 20%
    16:00 +33°C° 0 mm 4 mps 705 mmHg 21%
    17:00 +33°C° 0 mm 4 mps 705 mmHg 21%
    18:00 +29°C° 0 mm 4 mps 704 mmHg 27%
    19:00 +27°C° 0 mm 3 mps 704 mmHg 33%
    20:00 +24°C° 0 mm 3 mps 704 mmHg 40%
    21:00 +22°C° 0 mm 3 mps 704 mmHg 41%
    22:00 +22°C° 0 mm 3 mps 704 mmHg 42%
    23:00 +21°C° 0 mm 3 mps 704 mmHg 43%

    Pasado mañana, 31 Mayo, Domingo

    Tiempo Temperatura Precipitaciones Viento Presión Humedad
    00:00 +20°C° 0 mm 3 mps 704 mmHg 45%
    01:00 +19°C° 0 mm 2 mps 704 mmHg 47%
    02:00 +19°C° 0 mm 2 mps 703 mmHg 49%
    03:00 +19°C° 0 mm 1 mps 703 mmHg 51%
    04:00 +18°C° 0 mm 1 mps 703 mmHg 53%
    05:00 +18°C° 0 mm 1 mps 703 mmHg 55%
    06:00 +20°C° 0 mm 1 mps 703 mmHg 49%
    07:00 +23°C° 0 mm 1 mps 704 mmHg 44%
    08:00 +25°C° 0 mm 1 mps 704 mmHg 39%
    09:00 +27°C° 0 mm 2 mps 705 mmHg 35%
    10:00 +29°C° 0 mm 3 mps 705 mmHg 32%
    11:00 +31°C° 0 mm 3 mps 705 mmHg 29%
    12:00 +33°C° 0 mm 4 mps 705 mmHg 27%
    13:00 +34°C° 0 mm 4 mps 705 mmHg 25%
    14:00 +35°C° 0 mm 4 mps 705 mmHg 23%
    15:00 +35°C° 0 mm 4 mps 705 mmHg 23%
    16:00 +35°C° 0 mm 3 mps 705 mmHg 23%
    17:00 +34°C° 0 mm 3 mps 704 mmHg 23%
    18:00 +31°C° 0 mm 3 mps 704 mmHg 29%
    19:00 +28°C° 0 mm 4 mps 704 mmHg 36%
    20:00 +25°C° 0 mm 4 mps 704 mmHg 42%
    21:00 +24°C° 0 mm 3 mps 704 mmHg 42%
    22:00 +24°C° 0 mm 3 mps 704 mmHg 43%
    23:00 +23°C° 0 mm 2 mps 704 mmHg 43%

    1 Junio, Lunes

    Tiempo Temperatura Precipitaciones Viento Presión Humedad
    00:00 +21°C° 0 mm 2 mps 703 mmHg 43%
    01:00 +21°C° 0 mm 1 mps 703 mmHg 44%
    02:00 +21°C° 0 mm 1 mps 703 mmHg 45%
    03:00 +20°C° 0 mm 1 mps 703 mmHg 46%
    04:00 +20°C° 0 mm 1 mps 703 mmHg 47%
    05:00 +20°C° 0 mm 1 mps 703 mmHg 48%
    06:00 +23°C° 0 mm 1 mps 703 mmHg 42%
    07:00 +26°C° 0 mm 1 mps 704 mmHg 36%
    08:00 +26°C° 0 mm 0 mps 704 mmHg 30%
    09:00 +30°C° 0 mm 1 mps 704 mmHg 28%
    10:00 +32°C° 0 mm 2 mps 705 mmHg 26%
    11:00 +34°C° 0 mm 3 mps 705 mmHg 23%
    12:00 +35°C° 0 mm 2 mps 705 mmHg 22%
    13:00 +36°C° 0 mm 2 mps 705 mmHg 20%
    14:00 +36°C° 0 mm 2 mps 705 mmHg 18%
    15:00 +36°C° 0 mm 2 mps 705 mmHg 19%
    16:00 +35°C° 0 mm 3 mps 704 mmHg 21%
    17:00 +35°C° 0 mm 4 mps 704 mmHg 22%
    18:00 +32°C° 0 mm 5 mps 704 mmHg 28%
    19:00 +29°C° 0 mm 5 mps 704 mmHg 34%
    20:00 +26°C° 0 mm 6 mps 704 mmHg 40%
    21:00 +26°C° 0 mm 7 mps 704 mmHg 39%
    22:00 +24°C° 0 mm 7 mps 704 mmHg 38%
    23:00 +24°C° 0 mm 8 mps 704 mmHg 36%

    2 Junio, Martes

    Tiempo Temperatura Precipitaciones Viento Presión Humedad
    00:00 +24°C° 0 mm 6 mps 704 mmHg 36%
    01:00 +23°C° 0 mm 5 mps 704 mmHg 36%
    02:00 +22°C° 0 mm 4 mps 703 mmHg 36%
    03:00 +22°C° 0 mm 3 mps 703 mmHg 36%
    04:00 +21°C° 0 mm 3 mps 703 mmHg 36%
    05:00 +21°C° 0 mm 3 mps 703 mmHg 36%
    06:00 +25°C° 0 mm 2 mps 704 mmHg 33%
    07:00 +27°C° 0 mm 2 mps 704 mmHg 30%
    08:00 +30°C° 0 mm 2 mps 705 mmHg 26%
    09:00 +33°C° 0 mm 3 mps 705 mmHg 23%
    10:00 +34°C° 0 mm 3 mps 705 mmHg 20%
    11:00 +36°C° 0 mm 4 mps 705 mmHg 17%
    12:00 +37°C° 0 mm 4 mps 705 mmHg 16%
    13:00 +37°C° 0 mm 4 mps 705 mmHg 16%
    14:00 +38°C° 0 mm 4 mps 705 mmHg 15%
    15:00 +37°C° 0 mm 4 mps 705 mmHg 15%
    16:00 +37°C° 0 mm 4 mps 705 mmHg 16%
    17:00 +37°C° 0 mm 4 mps 704 mmHg 17%
    18:00 +34°C° 0 mm 3 mps 704 mmHg 21%
    19:00 +30°C° 0 mm 3 mps 704 mmHg 26%
    20:00 +27°C° 0 mm 2 mps 703 mmHg 31%
    21:00 +26°C° 0 mm 2 mps 703 mmHg 32%
    22:00 +25°C° 0 mm 2 mps 703 mmHg 33%
    23:00 +25°C° 0 mm 2 mps 703 mmHg 34%

    3 Junio, Miércoles

    Tiempo Temperatura Precipitaciones Viento Presión Humedad
    00:00 +24°C° 0 mm 2 mps 703 mmHg 34%
    01:00 +24°C° 0 mm 2 mps 703 mmHg 34%
    02:00 +24°C° 0 mm 2 mps 702 mmHg 34%
    03:00 +23°C° 0 mm 2 mps 702 mmHg 35%
    04:00 +22°C° 0 mm 3 mps 702 mmHg 35%
    05:00 +22°C° 0 mm 3 mps 702 mmHg 36%
    06:00 +26°C° 0 mm 3 mps 703 mmHg 33%
    07:00 +29°C° 0 mm 2 mps 703 mmHg 30%
    08:00 +31°C° 0 mm 2 mps 703 mmHg 27%
    09:00 +34°C° 0 mm 3 mps 704 mmHg 23%
    10:00 +36°C° 0 mm 3 mps 704 mmHg 18%
    11:00 +38°C° 0 mm 3 mps 704 mmHg 14%
    12:00 +38°C° 0 mm 4 mps 704 mmHg 14%
    13:00 +40°C° 0 mm 5 mps 704 mmHg 13%
    14:00 +41°C° 0 mm 6 mps 704 mmHg 12%
    15:00 +40°C° 0 mm 6 mps 704 mmHg 13%
    16:00 +40°C° 0 mm 5 mps 703 mmHg 13%
    17:00 +39°C° 0 mm 5 mps 703 mmHg 13%
    18:00 +36°C° 0 mm 4 mps 703 mmHg 17%
    19:00 +33°C° 0 mm 4 mps 703 mmHg 21%
    20:00 +29°C° 0 mm 3 mps 702 mmHg 25%
    21:00 +28°C° 0 mm 3 mps 703 mmHg 25%
    22:00 +28°C° 0 mm 4 mps 703 mmHg 25%
    23:00 +28°C° 0 mm 5 mps 703 mmHg 25%
    Mostrar más